Time,TemperatureF,DewpointF,PressureIn,WindDirection,WindDirectionDegrees,WindSpeedMPH,WindSpeedGustMPH,Humidity,HourlyPrecipIn,Conditions,Clouds,dailyrainin,SoftwareType,DateUTC
2013-06-08 00:01:00,66.0,64.0,29.70,WNW,288,3.0,3.0,92,-99.99,,,-99.99,,2013-06-08 04:01:00,
2013-06-08 00:03:00,66.0,63.0,29.71,WNW,284,2.0,2.0,91,-99.99,,,-99.99,,2013-06-08 04:03:00,
2013-06-08 00:13:00,66.0,63.0,29.71,WNW,284,2.0,2.0,91,-99.99,,,-99.99,,2013-06-08 04:13:00,
2013-06-08 00:23:00,66.0,63.0,29.71,West,279,2.0,2.0,91,-99.99,,,-99.99,,2013-06-08 04:23:00,
2013-06-08 00:33:00,66.0,63.0,29.71,West,279,6.0,6.0,90,0.00,,,-99.99,,2013-06-08 04:33:00,
2013-06-08 00:42:00,66.0,63.0,29.71,West,279,6.0,6.0,90,0.00,,,-99.99,,2013-06-08 04:42:00,
2013-06-08 00:53:00,66.0,63.0,29.72,WNW,286,4.0,4.0,89,0.00,,,-99.99,,2013-06-08 04:53:00,
2013-06-08 01:02:00,66.0,62.0,29.71,West,264,2.0,2.0,88,0.00,,,-99.99,,2013-06-08 05:02:00,
2013-06-08 01:12:00,66.0,62.0,29.71,West,264,2.0,2.0,88,0.00,,,-99.99,,2013-06-08 05:12:00,
2013-06-08 01:22:00,66.0,62.0,29.72,WNW,290,3.0,3.0,87,0.00,,,-99.99,,2013-06-08 05:22:00,
2013-06-08 01:32:00,66.0,62.0,29.73,WNW,294,2.0,2.0,86,0.00,,,-99.99,,2013-06-08 05:32:00,
2013-06-08 01:42:00,66.0,62.0,29.73,WNW,294,2.0,2.0,86,0.00,,,-99.99,,2013-06-08 05:42:00,
2013-06-08 01:53:00,66.0,62.0,29.73,West,271,1.0,1.0,86,0.00,,,-99.99,,2013-06-08 05:53:00,
2013-06-08 02:02:00,66.0,62.0,29.73,West,271,1.0,1.0,86,0.00,,,-99.99,,2013-06-08 06:02:00,
2013-06-08 02:13:00,66.0,62.0,29.73,West,271,1.0,1.0,86,0.00,,,-99.99,,2013-06-08 06:13:00,
2013-06-08 02:22:00,66.0,62.0,29.73,West,271,1.0,1.0,86,0.00,,,-99.99,,2013-06-08 06:22:00,
2013-06-08 02:32:00,66.0,62.0,29.73,West,271,1.0,1.0,86,0.00,,,-99.99,,2013-06-08 06:32:00,
2013-06-08 09:53:00,68.0,57.0,29.90,NW,315,7.0,7.0,69,-99.99,,,-99.99,,2013-06-08 13:53:00,
2013-06-08 10:02:00,68.0,57.0,29.92,WNW,284,1.0,1.0,68,-99.99,,,-99.99,,2013-06-08 14:02:00,
2013-06-08 10:12:00,68.0,57.0,29.92,WNW,284,1.0,1.0,68,-99.99,,,-99.99,,2013-06-08 14:12:00,
2013-06-08 10:22:00,68.0,57.0,29.92,West,277,3.0,3.0,69,-99.99,,,-99.99,,2013-06-08 14:22:00,
2013-06-08 10:32:00,67.0,57.0,29.92,WNW,294,5.0,5.0,70,-99.99,,,-99.99,,2013-06-08 14:32:00,
2013-06-08 10:42:00,67.0,57.0,29.92,WNW,294,5.0,5.0,70,-99.99,,,-99.99,,2013-06-08 14:42:00,
2013-06-08 10:52:00,67.0,57.0,29.92,WNW,292,2.0,2.0,70,0.00,,,-99.99,,2013-06-08 14:52:00,
2013-06-08 11:02:00,67.0,58.0,29.92,WNW,290,1.0,1.0,72,0.00,,,-99.99,,2013-06-08 15:02:00,
2013-06-08 11:12:00,67.0,58.0,29.92,WNW,290,1.0,1.0,72,0.00,,,-99.99,,2013-06-08 15:12:00,
2013-06-08 11:22:00,67.0,58.0,29.92,WNW,290,1.0,1.0,72,0.00,,,-99.99,,2013-06-08 15:22:00,
2013-06-08 11:32:00,67.0,58.0,29.92,WNW,290,1.0,1.0,72,0.00,,,-99.99,,2013-06-08 15:32:00,
2013-06-08 11:42:00,67.0,58.0,29.92,WNW,290,1.0,1.0,72,0.00,,,-99.99,,2013-06-08 15:42:00,